This is the latest recevied weather packets stored in our database for station/object KC9DNQ-3. If no packets are shown the sender has not sent any weather packets the latest 10 day(s).
| Time | Temp. | Humidity | Pressure | Rain* | Wind** | Luminosity | Snow |
|---|---|---|---|---|---|---|---|
| 1777556110 | 8.89° C | 78% | 1016.3 hPa | 0 mm | - | 329 W/m² | - |
| 1777555810 | 8.33° C | 80% | 1016.4 hPa | 0 mm | - | 279 W/m² | - |
| 1777555509 | 8.33° C | 80% | 1016.4 hPa | 0 mm | - | 325 W/m² | - |
| 1777555210 | 8.33° C | 81% | 1016.5 hPa | 0 mm | - | 169 W/m² | - |
| 1777554909 | 7.78° C | 83% | 1016.3 hPa | 0 mm | - | 301 W/m² | - |
| 1777554610 | 7.78° C | 84% | 1016.1 hPa | 0 mm | - | 209 W/m² | - |
| 1777554310 | 7.22° C | 85% | 1016.1 hPa | 0 mm | - | 251 W/m² | - |
| 1777554010 | 7.22° C | 87% | 1016.3 hPa | 0 mm | - | 206 W/m² | - |
| 1777553710 | 6.67° C | 89% | 1016.3 hPa | 0 mm | - | 105 W/m² | - |
| 1777553410 | 6.67° C | 90% | 1016.3 hPa | 0 mm | - | 90 W/m² | - |
| 1777553109 | 6.67° C | 91% | 1016.3 hPa | 0 mm | - | 118 W/m² | - |
| 1777552810 | 6.67° C | 93% | 1016.4 hPa | 0 mm | - | 123 W/m² | - |
| 1777552510 | 6.11° C | 94% | 1016.3 hPa | 0 mm | - | 120 W/m² | - |
| 1777552209 | 6.11° C | 95% | 1016.3 hPa | 0 mm | - | 118 W/m² | - |
| 1777551909 | 5.56° C | 95% | 1016 hPa | 0 mm | - | 128 W/m² | - |
| 1777551610 | 5.56° C | 95% | 1016 hPa | 0 mm | - | 102 W/m² | - |
| 1777551310 | 5.56° C | 95% | 1016 hPa | 0 mm | - | 67 W/m² | - |
| 1777551010 | 5° C | 95% | 1016 hPa | 0 mm | - | 81 W/m² | - |
| 1777550710 | 5° C | 95% | 1015.9 hPa | 0 mm | - | 49 W/m² | - |
| 1777550411 | 5° C | 95% | 1015.9 hPa | 0 mm | - | 46 W/m² | - |
| 1777550109 | 4.44° C | 95% | 1016 hPa | 0 mm | - | 70 W/m² | - |
| 1777549810 | 4.44° C | 95% | 1016.1 hPa | 0 mm | - | 53 W/m² | - |
| 1777549511 | 3.89° C | 95% | 1016.1 hPa | 0 mm | - | 46 W/m² | - |
| 1777549210 | 3.89° C | 95% | 1016.1 hPa | 0 mm | - | 53 W/m² | - |
| 1777548909 | 3.33° C | 95% | 1016 hPa | 0 mm | - | 44 W/m² | - |
* Rain latest hour (hover to see other rain measurements)
** Current wind speed in m/s (hover to see current wind gust speed)